Flag for Germany Weather past 2 weeks in Lahr, Baden-Württemberg, Germany

Now
71 °F

Partly sunny.


Feels Like: 77 °F
Forecast: 48 / 68 °F
Wind: 3 mph from Southwest

Location: Lahr

Current Time: Aug 22, 2014 at 3:58:15 PM

Latest Report: Aug 22, 2014 at 3:00 PM


Visibility: 47 mi

Pressure: 29.97 "Hg

Humidity: 46%

Dew point: 49 °F

Location of LahrLocation

Historic Weather in Lahr — Graph

°F

Lahr temperature yesterday

Maximum temperature yesterday: 69 °F (at 5:00 PM)
Minimum temperature yesterday: 49 °F (at 4:00 AM)
Average temperature yesterday: 59 °F

Past Weeks' High & Low Weather Summary

 TemperatureHumidityPressure
High83 °F (Aug 10, 5:00 PM)100% (Aug 10, 5:00 AM)30.18 "Hg (Aug 10, 5:00 AM)
Low49 °F (Aug 21, 4:00 AM)43% (Aug 21, 5:00 PM)29.67 "Hg (Aug 13, 3:00 PM)
Average64 °F77%29.95 "Hg
* Reported Aug 7 3:00 PM — Aug 22 3:00 PM, Lahr, Weather by CustomWeather, © 2014

Note: Actual official high and low records may vary slightly from our data, if they occured in-between our weather recording intervals... More about our weather records

Advertising

Lahr weather history for previous 24 hours

 ConditionsComfort  
Time TempWeatherWind HumidityBarometerVisibility
3:00 PM
Aug 22
71 °FPartly sunny.3 mph46%29.97 "Hg47 mi
2:00 PM68 °FPartly sunny.3 mph48%29.99 "Hg47 mi
1:00 PM67 °FPartly sunny.3 mph48%30.00 "Hg47 mi
12:00 PM66 °FOvercast.3 mph61%30.01 "Hg47 mi
11:00 AM63 °FOvercast.3 mph68%30.02 "Hg47 mi
10:00 AM58 °FOvercast.1 mph83%30.02 "Hg47 mi
9:00 AM55 °FOvercast.2 mph89%30.03 "Hg47 mi
8:00 AM54 °FOvercast.2 mph92%30.03 "Hg47 mi
7:00 AM51 °FOvercast.1 mph97%30.03 "Hg37 mi
6:00 AM51 °FPassing clouds.1 mph95%30.02 "Hg31 mi
5:00 AM52 °FOvercast.3 mph95%30.03 "Hg19 mi
4:00 AM51 °FOvercast.1 mph98%30.04 "Hg12 mi
3:00 AM53 °FOvercast.1 mph94%30.05 "Hg19 mi
2:00 AM51 °FOvercast.1 mph98%30.05 "Hg18 mi
1:00 AM52 °FPassing clouds.No wind95%30.05 "Hg12 mi
12:00 AM52 °FPassing clouds.1 mph94%30.05 "Hg19 mi
11:00 PM
Aug 21
56 °FOvercast.1 mph85%30.05 "Hg28 mi
10:00 PM57 °FPassing clouds.1 mph87%30.04 "Hg31 mi
9:00 PM60 °FPassing clouds.1 mph75%30.03 "Hg47 mi
8:00 PM63 °FPassing clouds.2 mph64%30.01 "Hg47 mi
7:00 PM66 °FPassing clouds.2 mph57%30.01 "Hg47 mi
6:00 PM68 °FScattered clouds.3 mph53%30.01 "Hg47 mi
5:00 PM69 °FScattered clouds.2 mph43%30.02 "Hg47 mi
4:00 PM68 °FPartly sunny.2 mph49%30.03 "Hg47 mi
3:00 PM67 °FPartly sunny.3 mph51%30.05 "Hg47 mi
Weather by CustomWeather, © 2014

See weather overviewHow to use our weather pages